Regional Weather Roundup
Issued by NWS

Home | Current Version | Previous Version | Graphics & Text | Print | Product List | Glossary On
Versions: 1 2 3 4 5 6 7 8 9 10 11 12 13 14 15 16 17 18 19 20 21 22 23 24 25 26 27 28 29 30 31 32 33 34 35 36 37 38 39 40 41 42 43 44 45 46 47 48 49 50
189
ASUS43 KLSX 141107
RWRMO

WEATHER SUMMARY FOR MISSOURI
NATIONAL WEATHER SERVICE SPRINGFIELD MO
500 AM CST SUN FEB 14 2016

NOTE: "FAIR" INDICATES FEW OR NO CLOUDS BELOW 12,000 FEET WITH NO
       SIGNIFICANT WEATHER AND/OR OBSTRUCTIONS TO VISIBILITY.
       CURRENT SKY AND/OR WEATHER CONDITIONS ARE NOT AVAILABLE FOR
       CHILLICOTHE AND FARMINGTON.

MOZ001>031-035>038-043-044-053-054-141200-
...NORTHERN AND WESTERN MISSOURI...

CITY           SKY/WX    TMP DP  RH WIND       PRES   REMARKS
KANSAS CTY INT CLOUDY    25   7  46 SE12      30.04R WCI  14
KANSAS C DTWN  CLOUDY    27   6  41 SE7       30.06R WCI  19
LEE`S SUMMIT   MIX PCPN  26  10  50 SE9       30.04F WCI  17
ST JOSEPH      CLOUDY    24   6  46 SE7       30.06F WCI  16
CHILLICOTHE      N/A     24   6  46 SE9       30.10F WCI  14
KIRKSVILLE     CLOUDY    20   8  60 SE17G24   30.11F WCI   5

$$
MOZ066>068-077>081-088>096-101>105-141200-
...SOUTHWEST MISSOURI...

CITY           SKY/WX    TMP DP  RH WIND       PRES   REMARKS
SPRINGFIELD    CLOUDY    27   8  44 SE21G28   30.02F WCI  13
JOPLIN         CLOUDY    35  13  40 SE14      29.99F WCI  26

$$
MOZ032>034-039>042-045>050-055>058-069>072-141200-
...CENTRAL MISSOURI...

CITY           SKY/WX    TMP DP  RH WIND       PRES   REMARKS
COLUMBIA       CLOUDY    23   6  48 SE16G22   30.13F WCI  10
JEFFERSON CITY CLOUDY    25   7  46 SE14      30.17F WCI  13
ROLLA          CLOUDY    24   7  48 SE16      30.13F WCI  11
SEDALIA        CLOUDY    28   3  34 SE14      30.07F WCI  17
WHITEMAN AFB   FRZ RAIN  27  14  59 VRB7      30.05F WCI  19
WARRENSBURG    MIX PCPN  28  12  50 SE13      30.05F WCI  18
OSAGE BEACH    CLOUDY    25  12  58 SE9       30.11F WCI  15

$$
MOZ051-052-059>065-141200-
...EAST CENTRAL MISSOURI...

CITY           SKY/WX    TMP DP  RH WIND       PRES   REMARKS
ST LOUIS INTL  CLOUDY    24   7  48 SE18      30.26F WCI  10
SPIRIT OF STL  CLOUDY    23   8  52 SE10      30.26F WCI  12
ST CHARLES     CLOUDY    23   8  52 SE18      30.27F WCI   9

$$
MOZ072>076-082>087-097>100-106>115-141200-
...SOUTH CENTRAL AND SOUTHEAST MISSOURI...

CITY           SKY/WX    TMP DP  RH WIND       PRES   REMARKS
CAPE GIRARDEAU CLOUDY    24  13  62 E12       30.31F WCI  13
FARMINGTON     CLOUDY    22  10  60 SE12      30.23F WCI  10
POPLAR BLUFF   MIX PCPN  26  17  68 E12       30.28F WCI  16
WEST PLAINS    CLOUDY    23  15  71 SE12      30.16F WCI  12

$$



USA.gov is the U.S. government's official web portal to all federal, state and local government web resources and services.